OPS 4682 DEB, 38445

Orbit data source: Space-Track

OPS 4682 DEB, 38445 is space debris in LEO originally from a launch on Sat, 03 Apr 1965 UTC launched from the Air Force Western Test Range (AFWTR). Debris objects in space refer to the collection of defunct objects orbiting the Earth. Examples of debris include non-operational satellites, rocket bodies, and fragments generated from explosions, collisions, or faulty payload assembly.

Loading next visibility...
Identifier
38445, 1965-027FA
Orbit
LEO
Country
Flag of USUS
Related business
Manufacturer
Unknown
Mission
Spacecraft
Bus & Motor
Unknown
Mass
Unknown
Launch date (UTC)
1965-04-03 (61 years ago)
Launch vehicle
Unknown
Launch site
Air Force Western Test Range (AFWTR)
Object type
Payload
Rocket body
Debris
Shape & HBR
Unknown shape, 0.1 m
Radar Cross Section
Medium (>0.1 m² and <1 m²)

Expand to show TLE details & history
Last TLE update: 3 days ago

TLE from 3 days ago
0 OPS 4682 DEB
1 38445U 65027FA  26260.54228843  .00000130  00000-0  43550-3 0  9990
2 38445  90.2477   8.6459 0028242 318.9061  40.9931 12.95435058615980
Epoch: 2026-09-17T13:00Z
TLE epoch observation values (Epoch: 2026-09-17T13:00:53.720Z)
Latitude
-0.00003°
Longitude
176.94403°
Altitude
1,266.6 km
Speed
7.23 km/s
True Right ascension
00h 34m 35s
True Declination
0° 00' 00"
Sunlit
Object was in full shadow at epoch
Visualization orbit readout
Latitude
Unknown
Longitude
Unknown
Altitude
Unknown
Speed
Unknown
Apparent Right ascension
Unknown
Apparent Declination
Unknown
Sunlit
N/A
Visualization observer readout
Local Sidereal Time
13:01:33
Azimuth
Unknown
Elevation
Unknown
Doppler factor
Unknown
Orbital elements
Apogee altitude
1,298.779 km
Perigee altitude
1,255.539 km
Semi-major axis
7,655.296 km
Eccentricity
0.00282
Inclination
90.2477°
RAAN
8.6459°
Arg. of periapsis
318.9061°
True anomaly
41.20596°
Mean anomaly
40.9931°
Eccentric anomaly
41.09947°
Mean motion
3.24041 °/min
Orbital period
111.1 mins
BSTAR
0.0004355
Loading maneuver chart data...
Computing Atmospheric mass density...
Loading historical data...
Loading historical data...
Loading historical data...
Loading historical data...
Loading historical data...
Loading historical data...
Loading historical data...

Documentation

Showing up to 5 results
|